Regional Weather Roundup
Issued by NWS

Home | Current Version | Previous Version | Graphics & Text | Print | Product List | Glossary On
Versions: 1 2 3 4 5 6 7 8 9 10 11 12 13 14 15 16 17 18 19 20 21 22 23 24 25 26 27 28 29 30 31 32 33 34 35 36 37 38 39 40 41 42 43 44 45 46 47 48 49 50
000
ASUS43 KMPX 031810
RWRMN
WEATHER ROUNDUP FOR MINNESOTA
NATIONAL WEATHER SERVICE TWIN CITIES/CHANHASSEN MN
100 PM CDT FRI JUL 03 2015


NOTE: "FAIR" INDICATES FEW OR NO CLOUDS BELOW 12,000 FEET WITH NO
SIGNIFICANT WEATHER AND/OR OBSTRUCTIONS TO VISIBILITY. N/A MEANS
CURRENT SKY AND/OR WEATHER CONDITIONS ARE NOT AVAILABLE.

MNZ060>063-068>070-031900-
   Twin Cities Metro

CITY           SKY/WX    TMP DP  RH WIND       PRES   REMARKS
TWIN CITIES    CLOUDY    76  56  49 W12       29.96S
6HR MIN TEMP:  61; 6HR MAX TEMP:  76;

ST PAUL        SUNNY     76  59  55 SW10G16   29.95F
CRYSTAL        SUNNY     79  56  45 W9        29.94S
BLAINE         SUNNY     79  57  47 W8        29.95S
LAKEVILLE      SUNNY     73  55  53 W7        29.97S
EDEN PRAIRIE   SUNNY     75  58  55 SW10      29.96R
6HR MIN TEMP:  57; 6HR MAX TEMP:  76;

SOUTH ST PAUL  SUNNY     75  54  48 W8        29.96R
LAKE ELMO      FAIR      77  57  50 SW8       29.97S
$$
MNZ001>005-007-008-013>017-022>024-027-028-031900-
   Northwest Minnesota

CITY           SKY/WX    TMP DP  RH WIND       PRES   REMARKS
BEMIDJI        MOSUNNY   77  63  61 NW10G16   29.93S HAZE
HALLOCK        SUNNY     77  61  57 NW5       29.93S HAZE
ROSEAU         SUNNY     77  63  61 N6        29.93R
WARROAD        SUNNY     77  61  57 NW9       29.93R
THIEF RVR FALL SUNNY     75  63  64 W7        29.94S
CROOKSTON      MOSUNNY   79  66  65 N7        29.94S HAZE
FOSSTON        MOSUNNY   77  64  65 NW3       29.94F HAZE
DETROIT LAKES    N/A     77  63  61 N6        29.96S HAZE
MOORHEAD       SUNNY     79  63  57 N7        29.94F HAZE
PARK RAPIDS    CLOUDY    77  64  64 N8        29.93S HAZE
MAHNOMEN       MOCLDY    76  64  67 NW3       29.94S HAZE
$$
MNZ006-009>011-018-025>026-031900-
   North Central Minnesota

CITY           SKY/WX    TMP DP  RH WIND       PRES   REMARKS
BAUDETTE       SUNNY     76  57  51 NW12      29.91S
FLAG ISLAND    SUNNY     73  57  56 N10       29.91S
INTL FALLS     MOSUNNY   77  56  48 N12       29.88S
6HR MIN TEMP:  63; 6HR MAX TEMP:  78;

WASKISH        SUNNY     79  61  53 N9        29.91S
BIG FORK       SUNNY     82  61  47 NW6       29.90S HAZE
LONGVILLE      MOSUNNY   73  66  78 W6        29.92S HAZE
GRAND RAPIDS   SUNNY     75  61  60 W12       29.91S
CRANE LAKE     MOSUNNY   73  61  64 NW5       29.88F
ORR            SUNNY     77  57  50 CALM      29.86S
COOK           MOSUNNY   75  59  57 NW6       29.89R
WALKER         FAIR      75  64  68 NW3       29.92S HAZE
$$
MNZ012-019>021-037-031900-
   Northeast Minnesota

CITY           SKY/WX    TMP DP  RH WIND       PRES   REMARKS
DULUTH         MOSUNNY   77  63  61 VRB6      29.89S HAZE
6HR MIN TEMP:  60; 6HR MAX TEMP:  77; 6HR PCP:  0.12;

ELY            MOSUNNY   72  61  68 NW7       29.87S
HIBBING        MOSUNNY   78  62  57 NW9G18    29.88F
EVELETH        SUNNY     77  61  57 NW8       29.89F
DULUTH HARBOR  SUNNY     79  66  65 SW7       29.87S
TWO HARBORS    SUNNY     81  64  57 W5        29.85S
SILVER BAY     SUNNY     81  63  54 W3        29.83S
GRAND MARAIS     N/A     53  48  83 W8G18     29.80S
G MARAIS ARPRT SUNNY     73  54  49 NW8       29.86S HAZE
$$
MNZ029>031-032-039>041-046>048-054>057-064-031900-
   West Central Minnesota

CITY           SKY/WX    TMP DP  RH WIND       PRES   REMARKS
FERGUS FALLS   MOSUNNY   75  66  73 CALM      29.93F HAZE
WHEATON        MOSUNNY   75  66  73 NW3       29.96S
MORRIS         MOSUNNY   79  66  65 W7        29.94S
ALEXANDRIA     MOSUNNY   75  66  73 W6        29.96F
ELBOW LAKE     FAIR      74  67  78 NW3       29.95S
WADENA         MOSUNNY   75  63  64 NW10      29.94R HAZE
GLENWOOD       MOSUNNY   75  66  73 W7        29.96S
APPLETON       SUNNY     81  63  54 CALM      29.94F
BENSON         MOSUNNY   79  63  57 NW3       29.95S
ORTONVILLE     SUNNY     81  64  57 W3        29.95R
MADISON          N/A     79  63  57 SW7       29.95S
WILLMAR        FAIR      77  61  57 W7        29.97S
$$
MNZ033>034-036-042>043-049>051-058-059-031900-
   Central Minnesota

CITY           SKY/WX    TMP DP  RH WIND       PRES   REMARKS
ST CLOUD       PTSUNNY   79  61  53 SW10      29.93S
6HR MIN TEMP:  54; 6HR MAX TEMP:  79;

SAUK CENTRE    MOCLDY    75  65  70 W9        29.95S
PAYNESVILLE    PTSUNNY   74  59  59 S7        29.96S
AITKIN         MOSUNNY   75  66  73 N5        29.90S HAZE
PINE RIVER       N/A     75  64  69 NW5       29.96S HAZE
BRAINERD       CLOUDY    77  64  64 W7        29.93S HAZE
STAPLES        MOSUNNY   79  63  57 NW7       29.93S HAZE
LONG PRAIRIE   FAIR      73  64  73 SW6       29.95S
LITTLE FALLS   SUNNY     77  61  57 W8        29.93S
LITCHFIELD     MOSUNNY   77  55  47 W8        29.97S
BUFFALO        SUNNY     76  56  50 SW5       29.96F
MAPLE LAKE     PTSUNNY   75  60  59 W7        29.96F
$$
MNZ037-044-045-052-053-031900-
   East Central Minnesota

CITY           SKY/WX    TMP DP  RH WIND       PRES   REMARKS
PRINCETON      SUNNY     79  63  57 SW7       29.94R
MORA           MOSUNNY   75  61  60 SW7       29.93S
CAMBRIDGE      SUNNY     79  63  57 SW8       29.92S
RUSH CITY      PTSUNNY   76  60  58 W7        29.93S
MOOSE LAKE     PTSUNNY   77  64  65 W5        29.88S
HINCKLEY       MOCLDY    77  64  65 W6        29.91F
CLOQUET        PTSUNNY   75  61  60 NW5       29.90S
MCGREGOR       MOSUNNY   75  63  64 N5        29.91S
$$
MNZ071>073-080-081-089-090-097-098-031900-
   Southwest Minnesota

CITY           SKY/WX    TMP DP  RH WIND       PRES   REMARKS
MONTEVIDEO     SUNNY     81  64  57 CALM      29.97R
GRANITE FALLS  SUNNY     76  60  58 CALM      29.98S
CANBY          MOSUNNY   78  64  62 SW5       29.97S
MARSHALL       SUNNY     77  57  50 NW6       29.97
REDWOOD FALLS  SUNNY     77  56  48 W6        29.97S
OLIVIA         SUNNY     73  54  49 SW7       29.96F
PIPESTONE      SUNNY     73  57  56 W6        30.01S
WINDOM         SUNNY     75  55  50 CALM      30.00S
WORTHINGTON    SUNNY     72  57  60 SW6       30.01S
JACKSON        SUNNY     73  55  53 NE3       30.01S
TRACY          SUNNY     76  56  48 W3        29.99S
SLAYTON        SUNNY     73  51  45 CALM      30.01S
$$
MNZ065>067-074>077-082>085-091>093-031900-
   South Central Minnesota

CITY           SKY/WX    TMP DP  RH WIND       PRES   REMARKS
MANKATO        SUNNY     73  48  40 W6        29.99S
NEW ULM        SUNNY     73  55  53 CALM      29.98S
ST JAMES       SUNNY     75  55  50 W3        30.00S
FAIRMONT       SUNNY     73  45  35 CALM      30.00S
GLENCOE        SUNNY     76  59  55 SW7       29.97S
FARIBAULT      SUNNY     75  57  53 W5        29.99S
OWATONNA       SUNNY     75  54  46 W8        29.99F
WASECA         SUNNY     72  54  53 SW6       30.01S
ALBERT LEA     SUNNY     73  55  53 W6        30.00S
$$
MNZ078>079-086>088-094>096-031900-
   Southeast Minnesota

CITY           SKY/WX    TMP DP  RH WIND       PRES   REMARKS
ROCHESTER      MOSUNNY   74  57  55 VRB5      30.00S
6HR MIN TEMP:  57; 6HR MAX TEMP:  74;

RED WING       MOSUNNY   79  55  44 W8        29.95F
STANTON        SUNNY     75  57  53 W8        29.96F
DODGE CENTER   SUNNY     73  57  56 W6        30.00S
WINONA         MOSUNNY   73  59  60 CALM      29.97F
AUSTIN         MOSUNNY   75  54  46 CALM      30.00S
PRESTON        SUNNY     71  56  57 W3        30.01S
$$
ABBREVIATIONS USED IN REMARKS
   TC - TEMPERATURES IN CELSIUS
  WCI - WIND CHILL INDEX
   HX - HEAT INDEX
  VSB - VISIBILITY
$$



USA.gov is the U.S. government's official web portal to all federal, state and local government web resources and services.